Jackson, WY

5:30 PM MST on December 15, 2019 (GMT -0700)
Jackson Hole

Weather History for KJAC - November, 2019

Change the Weather History Date:

Friday, November 22, 2019

  Actual Average Record
Temperature  
Mean Temperature 24 °F -  
Max Temperature 39 °F 33 °F 55 °F (2008)
Min Temperature 10 °F 10 °F -9 °F (1975)
Degree Days  
Heating Degree Days 40    
Moisture  
Dew Point 16 °F    
Average Humidity 76    
Maximum Humidity 89    
Minimum Humidity 49    
Precipitation  
Precipitation 0.00 in - - ()
Sea Level Pressure  
Sea Level Pressure 30.35 in    
Wind  
Wind Speed 3 mph ()    
Max Wind Speed 9 mph    
Max Gust Speed -    
Visibility 10.0 miles    
Events      
Averages and records for this station are not official NWS values.
T = Trace of Precipitation, MM = Missing Value Source: Averaged Metar Reports

Daily Weather History Graph

Daily Weather History Graph

Search for Another Location

Airport or City:

Astronomy

Nov. 22, 2019 Rise Set
Actual Time 7:25 AM MST 4:52 PM MST
Civil Twilight 6:54 AM MST 5:23 PM MST
Nautical Twilight 6:18 AM MST 5:58 PM MST
Astronomical Twilight 5:44 AM MST 6:32 PM MST
Moon 2:24 AM MST (11/22) 3:04 PM MST (11/22)
Length of Visible Light 10h 29m
Length of Day
9h 26m
Waning Crescent, 19% of the Moon is Illuminated
Nov 22
Waning Crescent
Nov 26
New
Dec 3
First Quarter
Dec 11
Full
Dec 18
Last Quarter

Hourly Weather History & Observations

Time (MST) Temp. Windchill Dew Point Humidity Pressure Visibility Wind Dir Wind Speed Gust Speed Precip Events Conditions
12:56 AM 16.0 °F 10.4 °F 12.0 °F 84% 30.23 in 10.0 mi NE 3.5 mph - N/A   Clear
1:56 AM 15.1 °F 7.7 °F 12.0 °F 88% 30.23 in 10.0 mi NE 4.6 mph - N/A   Clear
2:56 AM 16.0 °F 8.8 °F 12.0 °F 84% 30.24 in 10.0 mi NNE 4.6 mph - N/A   Clear
3:56 AM 10.9 °F 2.9 °F 7.0 °F 84% 30.27 in 10.0 mi NNE 4.6 mph - N/A   Clear
4:56 AM 12.0 °F 4.1 °F 8.1 °F 84% 30.31 in 10.0 mi NNE 4.6 mph - N/A   Clear
5:56 AM 12.9 °F 2.6 °F 10.0 °F 88% 30.33 in 10.0 mi North 6.9 mph - N/A   Clear
6:56 AM 10.9 °F 2.9 °F 8.1 °F 88% 30.36 in 10.0 mi NNE 4.6 mph - N/A   Clear
7:56 AM 12.0 °F 5.9 °F 8.1 °F 84% 30.39 in 10.0 mi NE 3.5 mph - N/A   Clear
8:56 AM 19.0 °F 10.0 °F 15.1 °F 85% 30.38 in 10.0 mi NNW 6.9 mph - N/A   Partly Cloudy
9:56 AM 23.0 °F 13.9 °F 16.0 °F 74% 30.42 in 10.0 mi NNE 8.1 mph - N/A   Clear
10:56 AM 28.0 °F - 19.0 °F 69% 30.38 in 10.0 mi Calm Calm - N/A   Clear
11:56 AM 34.0 °F - 19.9 °F 56% 30.34 in 10.0 mi Calm Calm - N/A   Clear
12:56 PM 36.0 °F - 21.0 °F 55% 30.31 in 10.0 mi Calm Calm - N/A   Clear
1:56 PM 37.0 °F - 21.0 °F 52% 30.29 in 10.0 mi Calm Calm - N/A   Clear
2:56 PM 39.0 °F 35.7 °F 21.0 °F 49% 30.27 in 10.0 mi South 4.6 mph - N/A   Clear
3:56 PM 37.9 °F - 21.0 °F 51% 30.33 in 10.0 mi Calm Calm - N/A   Clear
4:56 PM 34.0 °F - 19.0 °F 54% 30.35 in 10.0 mi Calm Calm - N/A   Clear
5:56 PM 28.9 °F - 19.9 °F 69% 30.38 in 10.0 mi Calm Calm - N/A   Clear
6:56 PM 23.0 °F 17.0 °F 18.0 °F 81% 30.45 in 10.0 mi North 4.6 mph - N/A   Clear
7:56 PM 24.1 °F 14.4 °F 19.9 °F 84% 30.47 in 10.0 mi North 9.2 mph - N/A   Clear
8:56 PM 25.0 °F - 19.9 °F 81% 30.44 in 10.0 mi Calm Calm - N/A   Mostly Cloudy
9:31 PM 21.2 °F 16.4 °F 17.6 °F 86% 30.26 in 10.0 mi ENE 3.5 mph - N/A   Overcast
9:56 PM 21.9 °F 17.2 °F 19.0 °F 89% 30.44 in 10.0 mi ENE 3.5 mph - N/A   Overcast
10:56 PM 25.0 °F - 19.9 °F 81% 30.43 in 10.0 mi Calm Calm - N/A   Overcast
11:46 PM 24.8 °F - 19.4 °F 80% 30.29 in 10.0 mi Calm Calm - N/A   Overcast
11:56 PM 24.1 °F 19.7 °F 19.9 °F 84% 30.42 in 10.0 mi North 3.5 mph - N/A   Overcast